TimeCDT,TemperatureF,Dew PointF,Humidity,Sea Level PressureIn,VisibilityMPH,Wind Direction,Wind SpeedMPH,Gust SpeedMPH,PrecipitationIn,Events,Conditions,WindDirDegrees,DateUTC
12:51 AM,80.1,55.0,42,29.68,10.0,South,4.6,-,N/A,,Clear,180,2013-05-17 05:51:00
1:51 AM,77.0,57.0,50,29.69,10.0,SSW,11.5,-,N/A,,Clear,200,2013-05-17 06:51:00
2:51 AM,75.9,57.9,54,29.69,10.0,West,3.5,-,N/A,,Clear,270,2013-05-17 07:51:00
3:51 AM,77.0,60.1,56,29.69,10.0,SSW,6.9,-,N/A,,Clear,200,2013-05-17 08:51:00
4:51 AM,78.1,60.1,54,29.70,10.0,South,8.1,-,N/A,,Clear,190,2013-05-17 09:51:00
5:51 AM,75.0,60.1,60,29.71,10.0,South,6.9,-,N/A,,Clear,190,2013-05-17 10:51:00
6:51 AM,73.9,60.1,62,29.72,10.0,South,9.2,-,N/A,,Clear,190,2013-05-17 11:51:00
7:51 AM,75.0,62.1,64,29.75,10.0,SSW,6.9,-,N/A,,Clear,200,2013-05-17 12:51:00
8:51 AM,81.0,64.0,56,29.76,10.0,SSW,9.2,-,N/A,,Clear,210,2013-05-17 13:51:00
9:51 AM,88.0,63.0,43,29.76,10.0,SSW,10.4,-,N/A,,Clear,210,2013-05-17 14:51:00
10:51 AM,93.9,61.0,33,29.75,10.0,WSW,10.4,-,N/A,,Clear,250,2013-05-17 15:51:00
11:51 AM,97.0,59.0,28,29.75,10.0,SSW,8.1,-,N/A,,Clear,210,2013-05-17 16:51:00
12:51 PM,100.0,51.1,19,29.74,10.0,SSW,6.9,-,N/A,,Clear,200,2013-05-17 17:51:00
1:51 PM,102.9,39.9,12,29.73,10.0,SE,8.1,-,N/A,,Clear,130,2013-05-17 18:51:00
2:51 PM,102.9,37.9,11,29.71,10.0,Variable,4.6,-,N/A,,Clear,0,2013-05-17 19:51:00
3:51 PM,102.0,39.0,11,29.70,10.0,SSW,15.0,-,N/A,,Clear,210,2013-05-17 20:51:00
4:51 PM,98.1,46.0,17,29.68,10.0,East,15.0,26.5,N/A,,Clear,100,2013-05-17 21:51:00
5:00 PM,98.6,48.2,18,29.76,10.0,East,12.7,-,N/A,,Clear,100,2013-05-17 22:00:00
5:51 PM,102.9,42.1,13,29.66,10.0,South,13.8,21.9,N/A,,Clear,180,2013-05-17 22:51:00
6:51 PM,100.9,42.1,13,29.67,10.0,South,10.4,-,N/A,,Clear,180,2013-05-17 23:51:00
7:51 PM,98.1,42.1,15,29.68,10.0,South,9.2,-,N/A,,Clear,190,2013-05-18 00:51:00
8:51 PM,93.0,43.0,18,29.70,10.0,South,8.1,-,N/A,,Clear,180,2013-05-18 01:51:00
9:51 PM,91.9,52.0,26,29.71,10.0,South,10.4,-,N/A,,Clear,170,2013-05-18 02:51:00
10:51 PM,91.0,54.0,28,29.73,10.0,South,10.4,-,N/A,,Clear,170,2013-05-18 03:51:00
11:51 PM,90.0,57.0,33,29.75,10.0,SSE,10.4,20.7,N/A,,Clear,160,2013-05-18 04:51:00